Time,TemperatureF,DewpointF,PressureIn,WindDirection,WindDirectionDegrees,WindSpeedMPH,WindSpeedGustMPH,Humidity,HourlyPrecipIn,Conditions,Clouds,dailyrainin,SoftwareType,DateUTC
2013-02-27 00:06:00,35.9,32.0,30.11,NE,41,0.0,1.0,84,0.00,,,0.00,weatherlink.com 1.10,2013-02-27 05:06:00,
2013-02-27 00:21:00,36.0,32.0,30.11,NE,49,0.0,2.0,85,0.00,,,0.00,weatherlink.com 1.10,2013-02-27 05:21:00,
2013-02-27 00:36:00,36.1,32.0,30.10,NE,51,0.0,1.0,85,0.00,,,0.00,weatherlink.com 1.10,2013-02-27 05:36:00,
2013-02-27 00:51:00,36.2,32.0,30.10,NE,46,0.0,1.0,86,0.00,,,0.00,weatherlink.com 1.10,2013-02-27 05:51:00,
2013-02-27 01:07:00,36.3,33.0,30.09,NNE,26,0.0,1.0,88,0.00,,,0.00,weatherlink.com 1.10,2013-02-27 06:07:00,
2013-02-27 01:22:00,36.4,34.0,30.06,East,86,0.0,3.0,90,0.01,,,0.01,weatherlink.com 1.10,2013-02-27 06:22:00,
2013-02-27 01:37:00,36.3,34.0,30.05,West,266,0.0,2.0,92,0.02,,,0.02,weatherlink.com 1.10,2013-02-27 06:37:00,
2013-02-27 01:52:00,36.5,35.0,30.05,ENE,68,0.0,3.0,93,0.02,,,0.02,weatherlink.com 1.10,2013-02-27 06:52:00,
2013-02-27 02:07:00,36.7,35.0,30.04,NE,41,1.0,3.0,93,0.03,,,0.03,weatherlink.com 1.10,2013-02-27 07:07:00,
2013-02-27 02:22:00,36.8,35.0,30.04,SW,215,1.0,3.0,93,0.03,,,0.04,weatherlink.com 1.10,2013-02-27 07:22:00,
2013-02-27 02:37:00,36.9,35.0,30.03,NE,44,0.0,5.0,93,0.04,,,0.06,weatherlink.com 1.10,2013-02-27 07:37:00,
2013-02-27 02:52:00,36.8,35.0,30.03,ENE,68,0.0,5.0,93,0.04,,,0.06,weatherlink.com 1.10,2013-02-27 07:52:00,
2013-02-27 03:07:00,36.8,35.0,30.01,ENE,57,1.0,2.0,94,0.05,,,0.08,weatherlink.com 1.10,2013-02-27 08:07:00,
2013-02-27 03:22:00,36.8,35.0,30.00,NNW,329,0.0,3.0,94,0.06,,,0.10,weatherlink.com 1.10,2013-02-27 08:22:00,
2013-02-27 03:37:00,36.9,35.0,30.01,East,91,1.0,3.0,94,0.07,,,0.13,weatherlink.com 1.10,2013-02-27 08:37:00,
2013-02-27 03:52:00,36.9,36.0,30.00,NE,36,0.0,2.0,95,0.11,,,0.18,weatherlink.com 1.10,2013-02-27 08:52:00,
2013-02-27 04:07:00,37.1,36.0,29.99,NE,46,2.0,3.0,95,0.13,,,0.21,weatherlink.com 1.10,2013-02-27 09:07:00,
2013-02-27 04:22:00,37.3,36.0,29.98,North,352,0.0,4.0,95,0.14,,,0.24,weatherlink.com 1.10,2013-02-27 09:22:00,
2013-02-27 04:37:00,37.6,37.0,29.97,NE,41,3.0,3.0,96,0.13,,,0.26,weatherlink.com 1.10,2013-02-27 09:37:00,
2013-02-27 04:52:00,38.1,37.0,29.96,ENE,68,2.0,4.0,96,0.08,,,0.26,weatherlink.com 1.10,2013-02-27 09:52:00,
2013-02-27 05:07:00,38.5,38.0,29.95,ENE,58,1.0,4.0,96,0.05,,,0.27,weatherlink.com 1.10,2013-02-27 10:07:00,
2013-02-27 05:22:00,38.9,38.0,29.93,NNE,19,5.0,5.0,96,0.03,,,0.27,weatherlink.com 1.10,2013-02-27 10:22:00,
2013-02-27 05:37:00,39.5,39.0,29.93,NE,49,1.0,5.0,96,0.01,,,0.27,weatherlink.com 1.10,2013-02-27 10:37:00,
2013-02-27 05:52:00,39.9,39.0,29.93,NNE,18,4.0,5.0,96,0.02,,,0.28,weatherlink.com 1.10,2013-02-27 10:52:00,
2013-02-27 06:07:00,40.2,39.0,29.91,NE,44,1.0,5.0,96,0.02,,,0.29,weatherlink.com 1.10,2013-02-27 11:07:00,
2013-02-27 06:23:00,40.5,40.0,29.90,NE,52,2.0,8.0,96,0.03,,,0.30,weatherlink.com 1.10,2013-02-27 11:23:00,
2013-02-27 06:38:00,40.7,40.0,29.88,NE,36,1.0,4.0,96,0.04,,,0.31,weatherlink.com 1.10,2013-02-27 11:38:00,
2013-02-27 06:53:00,40.9,40.0,29.89,NNE,26,5.0,8.0,96,0.05,,,0.33,weatherlink.com 1.10,2013-02-27 11:53:00,
2013-02-27 07:08:00,41.2,40.0,29.86,NE,46,4.0,6.0,96,0.07,,,0.36,weatherlink.com 1.10,2013-02-27 12:08:00,
2013-02-27 07:23:00,41.4,40.0,29.87,NE,50,2.0,9.0,96,0.08,,,0.38,weatherlink.com 1.10,2013-02-27 12:23:00,
2013-02-27 07:38:00,41.7,41.0,29.86,ESE,106,2.0,10.0,96,0.08,,,0.39,weatherlink.com 1.10,2013-02-27 12:38:00,
2013-02-27 07:53:00,42.1,41.0,29.85,ESE,113,4.0,9.0,97,0.08,,,0.41,weatherlink.com 1.10,2013-02-27 12:53:00,
2013-02-27 08:08:00,42.3,41.0,29.87,East,83,0.0,6.0,96,0.09,,,0.45,weatherlink.com 1.10,2013-02-27 13:08:00,
2013-02-27 08:23:00,42.4,41.0,29.85,East,86,1.0,12.0,96,0.12,,,0.50,weatherlink.com 1.10,2013-02-27 13:23:00,
2013-02-27 08:38:00,42.6,42.0,29.85,NNW,328,4.0,4.0,96,0.12,,,0.51,weatherlink.com 1.10,2013-02-27 13:38:00,
2013-02-27 08:53:00,42.6,42.0,29.84,NE,53,3.0,7.0,96,0.12,,,0.53,weatherlink.com 1.10,2013-02-27 13:53:00,
2013-02-27 09:08:00,42.7,42.0,29.84,ESE,108,3.0,5.0,96,0.11,,,0.56,weatherlink.com 1.10,2013-02-27 14:08:00,
2013-02-27 09:23:00,42.8,42.0,29.82,East,101,1.0,5.0,96,0.07,,,0.57,weatherlink.com 1.10,2013-02-27 14:23:00,
2013-02-27 09:38:00,42.9,42.0,29.80,NNE,25,2.0,11.0,96,0.08,,,0.59,weatherlink.com 1.10,2013-02-27 14:38:00,
2013-02-27 09:53:00,42.8,42.0,29.79,WNW,295,1.0,9.0,96,0.06,,,0.60,weatherlink.com 1.10,2013-02-27 14:53:00,
2013-02-27 10:08:00,42.9,42.0,29.78,NE,49,3.0,7.0,95,0.05,,,0.61,weatherlink.com 1.10,2013-02-27 15:08:00,
2013-02-27 10:23:00,42.9,42.0,29.79,SSW,201,3.0,7.0,95,0.05,,,0.62,weatherlink.com 1.10,2013-02-27 15:23:00,
2013-02-27 10:38:00,43.0,42.0,29.77,ESE,119,5.0,14.0,95,0.03,,,0.62,weatherlink.com 1.10,2013-02-27 15:38:00,
2013-02-27 10:53:00,43.1,42.0,29.77,ENE,62,1.0,7.0,95,0.04,,,0.64,weatherlink.com 1.10,2013-02-27 15:53:00,
2013-02-27 11:08:00,42.9,41.0,29.75,ENE,70,0.0,8.0,94,0.05,,,0.66,weatherlink.com 1.10,2013-02-27 16:08:00,
2013-02-27 11:23:00,42.7,41.0,29.75,South,190,2.0,11.0,95,0.04,,,0.66,weatherlink.com 1.10,2013-02-27 16:23:00,
2013-02-27 11:38:00,42.6,41.0,29.74,NE,56,5.0,6.0,95,0.08,,,0.70,weatherlink.com 1.10,2013-02-27 16:38:00,
2013-02-27 11:53:00,42.4,41.0,29.73,ENE,71,6.0,8.0,95,0.07,,,0.71,weatherlink.com 1.10,2013-02-27 16:53:00,
2013-02-27 12:08:00,42.3,41.0,29.71,NE,44,3.0,15.0,95,0.08,,,0.74,weatherlink.com 1.10,2013-02-27 17:08:00,
2013-02-27 12:23:00,42.1,41.0,29.71,ESE,108,7.0,10.0,96,0.10,,,0.76,weatherlink.com 1.10,2013-02-27 17:23:00,
2013-02-27 12:38:00,42.0,41.0,29.70,East,89,2.0,10.0,96,0.07,,,0.77,weatherlink.com 1.10,2013-02-27 17:38:00,
2013-02-27 12:53:00,41.8,41.0,29.69,NE,34,2.0,11.0,96,0.09,,,0.80,weatherlink.com 1.10,2013-02-27 17:53:00,
2013-02-27 13:08:00,41.7,41.0,29.68,SSE,159,3.0,11.0,96,0.07,,,0.81,weatherlink.com 1.10,2013-02-27 18:08:00,
2013-02-27 13:23:00,41.5,41.0,29.67,NE,42,2.0,10.0,96,0.06,,,0.82,weatherlink.com 1.10,2013-02-27 18:23:00,
2013-02-27 13:38:00,41.5,41.0,29.66,ESE,103,1.0,12.0,96,0.06,,,0.83,weatherlink.com 1.10,2013-02-27 18:38:00,
2013-02-27 13:54:00,41.4,40.0,29.66,SE,125,6.0,13.0,96,0.04,,,0.84,weatherlink.com 1.10,2013-02-27 18:54:00,
2013-02-27 14:09:00,41.3,40.0,29.66,NNE,15,1.0,15.0,96,0.03,,,0.84,weatherlink.com 1.10,2013-02-27 19:09:00,
2013-02-27 14:24:00,41.2,40.0,29.65,NE,48,2.0,14.0,96,0.02,,,0.84,weatherlink.com 1.10,2013-02-27 19:24:00,
2013-02-27 14:39:00,41.2,40.0,29.65,SE,128,1.0,9.0,96,0.11,,,0.94,weatherlink.com 1.10,2013-02-27 19:39:00,
2013-02-27 14:54:00,41.3,40.0,29.65,NW,326,1.0,14.0,96,0.18,,,1.02,weatherlink.com 1.10,2013-02-27 19:54:00,
2013-02-27 15:09:00,41.3,40.0,29.65,East,85,1.0,9.0,96,0.24,,,1.08,weatherlink.com 1.10,2013-02-27 20:09:00,
2013-02-27 15:24:00,41.3,40.0,29.66,NNE,26,0.0,6.0,96,0.27,,,1.12,weatherlink.com 1.10,2013-02-27 20:24:00,
2013-02-27 15:39:00,41.2,40.0,29.64,North,1,3.0,6.0,97,0.20,,,1.14,weatherlink.com 1.10,2013-02-27 20:39:00,
2013-02-27 15:54:00,41.2,40.0,29.63,North,1,2.0,6.0,97,0.16,,,1.18,weatherlink.com 1.10,2013-02-27 20:54:00,
2013-02-27 16:09:00,41.0,40.0,29.62,NE,41,2.0,3.0,97,0.13,,,1.21,weatherlink.com 1.10,2013-02-27 21:09:00,
2013-02-27 16:24:00,40.9,40.0,29.61,NE,56,1.0,2.0,97,0.11,,,1.23,weatherlink.com 1.10,2013-02-27 21:24:00,
2013-02-27 16:39:00,40.8,40.0,29.61,North,11,4.0,5.0,97,0.10,,,1.24,weatherlink.com 1.10,2013-02-27 21:39:00,
2013-02-27 16:54:00,40.8,40.0,29.60,North,358,1.0,2.0,97,0.07,,,1.25,weatherlink.com 1.10,2013-02-27 21:54:00,
2013-02-27 17:09:00,40.9,40.0,29.61,North,359,0.0,3.0,97,0.05,,,1.26,weatherlink.com 1.10,2013-02-27 22:09:00,
2013-02-27 17:24:00,40.9,40.0,29.61,NNE,16,0.0,1.0,97,0.05,,,1.28,weatherlink.com 1.10,2013-02-27 22:24:00,
2013-02-27 17:39:00,40.7,40.0,29.61,ENE,63,1.0,1.0,97,0.06,,,1.30,weatherlink.com 1.10,2013-02-27 22:39:00,
2013-02-27 17:54:00,40.9,40.0,29.61,NE,44,0.0,2.0,97,0.06,,,1.31,weatherlink.com 1.10,2013-02-27 22:54:00,
2013-02-27 18:09:00,41.0,40.0,29.60,North,8,0.0,3.0,97,0.05,,,1.31,weatherlink.com 1.10,2013-02-27 23:09:00,
2013-02-27 18:24:00,41.0,40.0,29.59,NE,44,0.0,2.0,97,0.03,,,1.31,weatherlink.com 1.10,2013-02-27 23:24:00,
2013-02-27 18:39:00,41.1,40.0,29.59,North,359,2.0,3.0,97,0.01,,,1.31,weatherlink.com 1.10,2013-02-27 23:39:00,
2013-02-27 18:54:00,41.2,40.0,29.58,NNW,343,0.0,4.0,97,0.00,,,1.31,weatherlink.com 1.10,2013-02-27 23:54:00,
2013-02-27 19:09:00,41.1,40.0,29.58,North,352,0.0,3.0,97,0.00,,,1.31,weatherlink.com 1.10,2013-02-28 00:09:00,
2013-02-27 19:24:00,41.0,40.0,29.57,NNE,15,0.0,1.0,97,0.01,,,1.32,weatherlink.com 1.10,2013-02-28 00:24:00,
2013-02-27 19:39:00,40.9,40.0,29.57,NE,46,0.0,0.0,97,0.01,,,1.32,weatherlink.com 1.10,2013-02-28 00:39:00,
2013-02-27 19:54:00,40.9,40.0,29.57,NE,41,0.0,0.0,97,0.01,,,1.32,weatherlink.com 1.10,2013-02-28 00:54:00,
2013-02-27 20:09:00,40.7,40.0,29.56,NNE,23,0.0,0.0,97,0.01,,,1.32,weatherlink.com 1.10,2013-02-28 01:09:00,
2013-02-27 20:24:00,40.6,40.0,29.55,NNE,23,0.0,0.0,97,0.00,,,1.32,weatherlink.com 1.10,2013-02-28 01:24:00,
2013-02-27 20:39:00,40.6,40.0,29.55,North,11,0.0,0.0,97,0.00,,,1.32,weatherlink.com 1.10,2013-02-28 01:39:00,
2013-02-27 20:54:00,40.5,40.0,29.55,NW,323,0.0,0.0,97,0.00,,,1.32,weatherlink.com 1.10,2013-02-28 01:54:00,
2013-02-27 21:09:00,40.4,40.0,29.56,NW,323,0.0,0.0,97,0.00,,,1.32,weatherlink.com 1.10,2013-02-28 02:09:00,
2013-02-27 21:24:00,40.1,39.0,29.55,North,5,0.0,0.0,97,0.00,,,1.32,weatherlink.com 1.10,2013-02-28 02:24:00,
2013-02-27 21:39:00,40.0,39.0,29.55,North,5,0.0,0.0,97,0.01,,,1.33,weatherlink.com 1.10,2013-02-28 02:39:00,
2013-02-27 21:54:00,39.9,39.0,29.55,North,4,0.0,0.0,97,0.01,,,1.33,weatherlink.com 1.10,2013-02-28 02:54:00,
2013-02-27 22:09:00,39.9,39.0,29.55,West,281,0.0,0.0,97,0.01,,,1.33,weatherlink.com 1.10,2013-02-28 03:09:00,
2013-02-27 22:24:00,39.8,39.0,29.56,WNW,283,1.0,1.0,97,0.01,,,1.33,weatherlink.com 1.10,2013-02-28 03:24:00,
2013-02-27 22:39:00,39.7,39.0,29.56,WNW,301,0.0,1.0,97,0.00,,,1.33,weatherlink.com 1.10,2013-02-28 03:39:00,
2013-02-27 22:54:00,39.5,39.0,29.56,NW,307,1.0,2.0,97,0.00,,,1.33,weatherlink.com 1.10,2013-02-28 03:54:00,
2013-02-27 23:09:00,39.2,39.0,29.56,WNW,300,1.0,3.0,97,0.00,,,1.33,weatherlink.com 1.10,2013-02-28 04:09:00,
2013-02-27 23:24:00,38.8,38.0,29.56,WNW,295,0.0,1.0,97,0.00,,,1.33,weatherlink.com 1.10,2013-02-28 04:24:00,
2013-02-27 23:39:00,38.6,38.0,29.56,WNW,288,0.0,2.0,97,0.00,,,1.33,weatherlink.com 1.10,2013-02-28 04:39:00,
2013-02-27 23:54:00,38.4,38.0,29.56,WNW,288,0.0,2.0,97,0.00,,,1.33,weatherlink.com 1.10,2013-02-28 04:54:00,